Weather History for KNSE - May, 2013

Change the Weather History Date:

Sunday, May 12, 2013

  Actual Average Record
Temperature  
Mean Temperature 71 °F -  
Max Temperature 80 °F 82 °F 96 °F (2011)
Min Temperature 62 °F 61 °F 54 °F (2008)
Cooling Degree Days 6    
Growing Degree Days 21 (Base 50)    
Moisture  
Dew Point 57 °F    
Average Humidity 69    
Maximum Humidity 94    
Minimum Humidity 36    
Precipitation  
Precipitation 0.00 in - - ()
Sea Level Pressure  
Sea Level Pressure 30.02 in    
Wind  
Wind Speed 6 mph (NNW)    
Max Wind Speed 14 mph    
Max Gust Speed -    
Visibility 7 miles    
Events Fog    
Averages and records for this station are not official NWS values.
T = Trace of Precipitation, MM = Missing Value Source: NWS Daily Summary

Daily Weather History Graph

Daily Weather History Graph

Search for Another Location

Airport or City:

Trip Planner

Search our weather history database for the weather conditions in past years. The results will help you decide how hot, cold, wet, or windy it might be!

Date:

Astronomy

May. 12, 2013 Rise Set
Actual Time 5:55 AM CDT 7:34 PM CDT
Civil Twilight 5:28 AM CDT 8:00 PM CDT
Nautical Twilight 4:57 AM CDT 8:32 PM CDT
Astronomical Twilight 4:24 AM CDT 9:05 PM CDT
Moon 7:52 AM CDT (5/12) 9:58 PM CDT (5/12)
Length of Visible Light 14h 31m
Length of Day
13h 39m
Waxing Crescent, 7% of the Moon is Illuminated
May 12
Waxing Crescent
May 17
First Quarter
May 24
Full
May 31
Last Quarter
Jun 8
New

Hourly Weather History & Observations

Time (CDT) Temp. Dew Point Humidity Pressure Visibility Wind Dir Wind Speed Gust Speed Precip Events Conditions
12:56 AM 64.9 °F 62.1 °F 90% 29.96 in 5.0 mi WNW 4.6 mph - N/A   Clear
1:34 AM 66.2 °F 62.6 °F 88% 30.00 in 6.0 mi West 5.8 mph - N/A   Scattered Clouds
1:39 AM 66.2 °F 62.6 °F 88% 30.00 in 2.5 mi West 6.9 mph - N/A   Mostly Cloudy
1:46 AM 66.2 °F 62.6 °F 88% 30.00 in 0.8 mi West 8.1 mph - N/A   Mist
1:56 AM 66.0 °F 63.0 °F 90% 29.96 in 0.5 mi WNW 6.9 mph - N/A Fog Fog
2:05 AM 66.2 °F 62.6 °F 88% 29.99 in 0.2 mi West 6.9 mph - N/A Fog Fog
2:20 AM 64.4 °F 62.6 °F 94% 29.99 in 0.5 mi WNW 5.8 mph - N/A Fog Fog
2:39 AM 66.2 °F 62.6 °F 88% 29.99 in 0.2 mi WNW 8.1 mph - N/A Fog Fog
2:56 AM 66.0 °F 63.0 °F 90% 29.96 in 0.2 mi WNW 8.1 mph - N/A Fog Fog
3:06 AM 66.2 °F 62.6 °F 88% 30.00 in 0.5 mi WNW 8.1 mph - N/A Fog Fog
3:19 AM 66.2 °F 62.6 °F 88% 30.00 in 2.0 mi NW 8.1 mph - N/A   Overcast
3:27 AM 66.2 °F 62.6 °F 88% 30.00 in 4.0 mi NW 6.9 mph - N/A   Overcast
3:53 AM 64.4 °F 62.6 °F 94% 30.00 in 5.0 mi NW 3.5 mph - N/A   Scattered Clouds
3:56 AM 64.9 °F 62.1 °F 90% 29.96 in 6.0 mi NW 4.6 mph - N/A   Partly Cloudy
4:56 AM 64.9 °F 61.0 °F 87% 29.98 in 8.0 mi NNW 3.5 mph - N/A   Partly Cloudy
5:56 AM 64.0 °F 60.1 °F 87% 29.99 in 8.0 mi North 4.6 mph - N/A   Clear
6:56 AM 64.0 °F 59.0 °F 84% 30.01 in 9.0 mi North 4.6 mph - N/A   Clear
7:56 AM 66.9 °F 59.0 °F 76% 30.04 in 9.0 mi Variable 4.6 mph - N/A   Clear
8:56 AM 70.0 °F 53.1 °F 55% 30.04 in 10.0 mi NNE 8.1 mph - N/A   Clear
9:56 AM 72.0 °F 48.9 °F 44% 30.06 in 10.0 mi Variable 5.8 mph - N/A   Clear
10:56 AM 75.0 °F 48.0 °F 38% 30.05 in 10.0 mi NNE 6.9 mph - N/A   Clear
11:56 AM 77.0 °F 48.0 °F 36% 30.04 in 10.0 mi NE 6.9 mph - 0.00 in   Clear
12:56 PM 78.1 °F 50.0 °F 37% 30.04 in 10.0 mi Variable 4.6 mph - N/A   Clear
1:56 PM 78.1 °F 51.1 °F 39% 30.04 in 10.0 mi NNW 5.8 mph - N/A   Clear
2:56 PM 78.1 °F 51.1 °F 39% 30.04 in 9.0 mi NNW 8.1 mph - N/A   Clear
3:56 PM 78.1 °F 52.0 °F 40% 30.01 in 10.0 mi NNE 6.9 mph - N/A   Clear
4:56 PM 78.1 °F 54.0 °F 43% 30.02 in 10.0 mi North 13.8 mph - N/A   Mostly Cloudy
5:56 PM 77.0 °F 53.1 °F 43% 30.02 in 10.0 mi Variable 5.8 mph - N/A   Mostly Cloudy
6:56 PM 75.0 °F 53.1 °F 46% 30.03 in 10.0 mi NW 4.6 mph - N/A   Mostly Cloudy
7:56 PM 70.0 °F 55.0 °F 59% 30.04 in 10.0 mi NNW 4.6 mph - N/A   Scattered Clouds
8:56 PM 69.1 °F 54.0 °F 58% 30.06 in 10.0 mi North 10.4 mph - N/A   Scattered Clouds
9:56 PM 66.9 °F 54.0 °F 63% 30.07 in 10.0 mi North 5.8 mph - N/A   Clear
10:56 PM 64.0 °F 51.1 °F 63% 30.08 in 10.0 mi North 5.8 mph - N/A   Clear
11:56 PM 62.1 °F 46.9 °F 58% 30.08 in 10.0 mi North 6.9 mph - N/A   Clear